This demonstration page uses our WeatherBlox Daily Observations layout. Learn more.

Left ArrowRight Arrow

40.97296, -117.73568

Hourly Observations for May 7, 2022

Temp ( °F °C ) Dew Point ( °F °C ) Humidity (%) Winds ( mph kmh ) Pressure ( in mb ) Visibility ( mi km ) Precip ( " mm )
12:56 am 00:56 Clear 55 12.8 29 -1.7 37 37 SW 15 24 29.75 1007 10 16 0.00 0.00
1:56 am 01:56 Mostly Clear 53 11.7 29 -1.7 40 40 SW 10 17 29.75 1008 10 16 0.00 0.00
2:56 am 02:56 Clear 47 8.3 29 -1.7 50 50 WSW 9 15 29.78 1009 10 16 0.00 0.00
3:56 am 03:56 Clear 46 7.8 29 -1.7 51 51 W 12 19 29.78 1009 10 16 0.00 0.00
4:56 am 04:56 Clear 47 8.3 27 -2.8 46 46 WSW 10 17 29.78 1009 10 16 0.00 0.00
5:56 am 05:56 Sunny 46 7.8 28 -2.2 50 50 E 3 6 29.80 1009 10 16 0.00 0.00
6:56 am 06:56 Sunny 50 10 30 -1.1 46 46 Calm 29.82 1010 10 16 0.00 0.00
7:56 am 07:56 Sunny 50 10 29 -1.7 44 44 W 14 22 29.85 1011 10 16 0.00 0.00
8:56 am 08:56 Sunny 52 11.1 25 -3.9 35 35 W 16 26 29.85 1011 10 16 0.00 0.00
9:56 am 09:56 Partly Cloudy 54 12.2 23 -5 30 30 W 15 24 29.85 1011 10 16 0.00 0.00
10:56 am 10:56 Mostly Sunny 56 13.3 24 -4.4 29 29 WNW 14 22 29.84 1011 10 16 0.00 0.00
11:56 am 11:56 Mostly Cloudy 55 12.8 23 -5 29 29 W 10 17 29.84 1010 10 16 0.00 0.00
12:56 pm 12:56 Mostly Cloudy 58 14.4 22 -5.6 25 25 W 16 26 29.81 1009 10 16 0.00 0.00
1:56 pm 13:56 Sunny 62 16.7 21 -6.1 21 21 W 21 33 29.78 1009 10 16 0.00 0.00
2:56 pm 14:56 Mostly Cloudy 61 16.1 20 -6.7 20 20 W 25 41 29.78 1009 10 16 0.00 0.00
3:56 pm 15:56 Partly Cloudy 62 16.7 18 -7.8 18 18 W 20 31 29.76 1008 10 16 0.00 0.00
4:56 pm 16:56 Mostly Sunny 62 16.7 18 -7.8 18 18 W 20 31 29.75 1007 10 16 0.00 0.00
5:56 pm 17:56 Mostly Sunny 58 14.4 20 -6.7 23 23 WNW 17 28 29.75 1007 10 16 0.00 0.00
6:56 pm 18:56 Mostly Cloudy 56 13.3 23 -5 28 28 NW 15 24 29.74 1007 10 16 0.00 0.00
7:56 pm 19:56 Mostly Cloudy 50 10 27 -2.8 41 41 N 12 19 29.76 1008 10 16 0.00 0.00
8:56 pm 20:56 Mostly Clear 46 7.8 29 -1.7 51 51 N 9 15 29.77 1008 10 16 0.00 0.00
9:56 pm 21:56 Partly Cloudy 44 6.7 28 -2.2 53 53 NNW 6 9 29.78 1008 10 16 0.00 0.00
10:56 pm 22:56 Clear 36 2.2 25 -3.9 64 64 Calm 29.78 1008 10 16 0.00 0.00
11:56 pm 23:56 Mostly Cloudy 37 2.8 26 -3.3 65 65 W 7 11 29.77 1008 10 16 0.00 0.00

Powered by AerisWeather